WXM80 ListenWXM80 Stop

You find our weather info also at:

UK Metoffice

WeatherCloud

Weather Underground

Northeastern Weather Network

AWEKAS

Citizen Weather Observer Program (CWOP)

HAMweather, WeatherForYou, PWS Weather


Weather Underground History page Text

Daily Summary for January 30, 2017 Units:  Metric    English   Both
« Previous Day
Next Day »
Daily Weekly Monthly Yearly Custom
  High: Low: Average:
Temperature: 3.1 °C -1.4 °C 0.7 °C
Dew Point: -3.2 °C -11.4 °C -6.9 °C
Humidity: 80 % 45 % 58 %
Wind Speed: 13.7 km/h 0 km/h 6.1 km/h
Wind Gust: 25.7 km/h - -
Wind:- - SW
Pressure: 1013.8 hPa 1005.3 hPa -
Precipitation: 0 mm    
Historical Graphs
 
 
Tabular Data for January 30, 2017
Time Temperature Dew Point Pressure Wind Wind Speed Wind Gust Humidity Rainfall Rate (Hourly)
00:01 -0.8 °C -5.9 °C 1005.6 hPa SW 1.6 km/h 4.8 km/h 68 % 0 mm
00:06 -0.8 °C -5.9 °C 1005.6 hPa SW 2.1 km/h 3.7 km/h 68 % 0 mm
00:11 -0.8 °C -6 °C 1005.6 hPa SW 1.6 km/h 1.9 km/h 68 % 0 mm
00:16 -0.8 °C -5.8 °C 1005.6 hPa SW 0.3 km/h 1.9 km/h 69 % 0 mm
00:27 -0.8 °C -5.8 °C 1005.6 hPa Calm   1.9 km/h 69 % 0 mm
00:32 -0.8 °C -5.8 °C 1005.6 hPa Calm     69 % 0 mm
00:37 -0.9 °C -5.9 °C 1005.6 hPa Calm     69 % 0 mm
00:42 -0.9 °C -5.7 °C 1005.6 hPa Calm     70 % 0 mm
00:47 -0.9 °C -5.7 °C 1005.3 hPa Calm   1.9 km/h 70 % 0 mm
00:52 -0.9 °C -5.7 °C 1005.6 hPa SW 0.2 km/h 1.9 km/h 70 % 0 mm
00:57 -1 °C -5.6 °C 1005.3 hPa SW 0.2 km/h 1.9 km/h 71 % 0 mm
01:02 -1 °C -5.4 °C 1005.3 hPa SW 0.5 km/h 1.9 km/h 72 % 0 mm
01:07 -1 °C -5.2 °C 1005.3 hPa SW 0.2 km/h 1.9 km/h 73 % 0 mm
01:12 -1.1 °C -5.3 °C 1005.3 hPa SW 0.2 km/h 1.9 km/h 73 % 0 mm
01:17 -1.1 °C -5.1 °C 1005.3 hPa SW 0.2 km/h 1.6 km/h 74 % 0 mm
01:22 -1.1 °C -4.9 °C 1005.3 hPa SW 0.5 km/h 1.9 km/h 75 % 0 mm
01:27 -1.1 °C -5 °C 1005.3 hPa SW 2.6 km/h 3.7 km/h 75 % 0 mm
01:32 -1.1 °C -4.6 °C 1005.6 hPa Calm   1.9 km/h 77 % 0 mm
01:37 -1.1 °C -4.6 °C 1005.6 hPa Calm   1.6 km/h 77 % 0 mm
01:42 -1.1 °C -4.6 °C 1005.6 hPa Calm     77 % 0 mm
01:47 -1.2 °C -4.7 °C 1005.6 hPa Calm     77 % 0 mm
01:53 -1.2 °C -4.9 °C 1005.6 hPa Calm     76 % 0 mm
01:58 -1.3 °C -4.9 °C 1005.3 hPa Calm     76 % 0 mm
02:03 -1.3 °C -5 °C 1005.3 hPa Calm     76 % 0 mm
02:08 -1.4 °C -5.1 °C 1005.3 hPa Calm     76 % 0 mm
02:13 -1.4 °C -5.1 °C 1005.3 hPa Calm   1.9 km/h 76 % 0 mm
02:18 -1.4 °C -4.9 °C 1005.3 hPa Calm   1.9 km/h 77 % 0 mm
02:23 -1.4 °C -4.9 °C 1005.3 hPa Calm     77 % 0 mm
02:28 -1.4 °C -4.8 °C 1005.3 hPa Calm     78 % 0 mm
02:33 -1.4 °C -4.7 °C 1005.6 hPa WNW 0.3 km/h 1.9 km/h 78 % 0 mm
02:38 -1.3 °C -4.3 °C 1005.6 hPa North 3.5 km/h 5.6 km/h 80 % 0 mm
02:43 -1.1 °C -4.1 °C 1005.6 hPa North 0.8 km/h 1.9 km/h 80 % 0 mm
02:48 -0.9 °C -3.9 °C 1005.6 hPa NNE 6.6 km/h 9.7 km/h 80 % 0 mm
02:53 -0.8 °C -4.1 °C 1005.3 hPa NNE 5.6 km/h 7.4 km/h 78 % 0 mm
02:58 -0.6 °C -4.2 °C 1005.3 hPa NNE 5.3 km/h 7.4 km/h 77 % 0 mm
03:03 -0.4 °C -4 °C 1005.3 hPa NNE 5.3 km/h 11.1 km/h 77 % 0 mm
03:08 -0.2 °C -3.8 °C 1005.3 hPa North 6.3 km/h 8 km/h 77 % 0 mm
03:13 0 °C -3.6 °C 1005.6 hPa North 4.3 km/h 8 km/h 77 % 0 mm
03:18 0.2 °C -3.3 °C 1005.6 hPa NNW 1.3 km/h 5.6 km/h 77 % 0 mm
03:23 0.4 °C -3.2 °C 1005.3 hPa North 5.1 km/h 7.4 km/h 77 % 0 mm
03:28 0.4 °C -3.3 °C 1005.6 hPa North 4.8 km/h 9.7 km/h 76 % 0 mm
03:34 0.6 °C -3.4 °C 1005.6 hPa North 4.8 km/h 11.3 km/h 75 % 0 mm
03:39 0.7 °C -3.3 °C 1005.6 hPa North 4.8 km/h 9.7 km/h 75 % 0 mm
03:43 0.7 °C -3.4 °C 1005.6 hPa North 3.2 km/h 8 km/h 74 % 0 mm
03:49 0.7 °C -3.6 °C 1005.6 hPa North 4.8 km/h 9.7 km/h 73 % 0 mm
03:54 0.8 °C -3.7 °C 1005.6 hPa North 3.4 km/h 5.6 km/h 72 % 0 mm
03:59 0.8 °C -3.7 °C 1005.6 hPa North 3.2 km/h 5.6 km/h 72 % 0 mm
04:04 0.7 °C -3.9 °C 1005.6 hPa NNE 6.6 km/h 7.4 km/h 71 % 0 mm
04:14 0.7 °C -4.1 °C 1005.6 hPa North 4.5 km/h 7.4 km/h 70 % 0 mm
04:19 0.7 °C -3.9 °C 1005.6 hPa North 0.8 km/h 4.8 km/h 71 % 0 mm
04:24 0.7 °C -3.8 °C 1006 hPa North 5.8 km/h 9.3 km/h 72 % 0 mm
04:29 0.7 °C -3.8 °C 1006 hPa NNE 5.5 km/h 9.7 km/h 72 % 0 mm
04:34 0.7 °C -3.8 °C 1006 hPa NNE 3.1 km/h 9.3 km/h 72 % 0 mm
04:39 0.7 °C -3.8 °C 1006 hPa NNW 5.5 km/h 9.3 km/h 72 % 0 mm
04:44 0.6 °C -3.8 °C 1006 hPa North 7.6 km/h 9.7 km/h 72 % 0 mm
04:49 0.6 °C -3.9 °C 1006 hPa North 3.1 km/h 9.7 km/h 72 % 0 mm
04:54 0.6 °C -3.9 °C 1006.3 hPa NNW 5.1 km/h 11.1 km/h 72 % 0 mm
04:59 0.5 °C -3.9 °C 1006 hPa North 4 km/h 9.3 km/h 72 % 0 mm
05:04 0.4 °C -4.2 °C 1006.3 hPa North 2.9 km/h 11.3 km/h 71 % 0 mm
05:09 0.4 °C -4.2 °C 1006 hPa NNE 3.7 km/h 7.4 km/h 71 % 0 mm
05:14 0.4 °C -4.2 °C 1006.3 hPa NNE 5.1 km/h 11.1 km/h 71 % 0 mm
05:19 0.4 °C -4.4 °C 1006.3 hPa NNW 10.1 km/h 18.5 km/h 70 % 0 mm
05:24 0.3 °C -4.5 °C 1006.3 hPa NNE 7.6 km/h 16.7 km/h 70 % 0 mm
05:29 0.3 °C -4.3 °C 1006.3 hPa North 7.1 km/h 14.8 km/h 71 % 0 mm
05:35 0.3 °C -4.4 °C 1006.3 hPa North 6.4 km/h 11.1 km/h 71 % 0 mm
05:40 0.3 °C -4.4 °C 1006.3 hPa North 1.1 km/h 5.6 km/h 71 % 0 mm
05:50 0.2 °C -4.4 °C 1006.3 hPa North 7.7 km/h 16.7 km/h 71 % 0 mm
05:55 0.2 °C -4.5 °C 1006.3 hPa NNE 10.1 km/h 14.8 km/h 71 % 0 mm
06:00 0.2 °C -4.5 °C 1006.3 hPa North 8.2 km/h 16.7 km/h 71 % 0 mm
06:05 0.1 °C -4.6 °C 1006.3 hPa NNE 9.7 km/h 9.7 km/h 71 % 0 mm
06:10 0.1 °C -4.6 °C 1006.3 hPa NE 9.5 km/h 14.8 km/h 71 % 0 mm
06:15 0.1 °C -4.6 °C 1006.3 hPa NE 6.6 km/h 11.1 km/h 71 % 0 mm
06:20 0 °C -4.6 °C 1006.3 hPa NNE 9.5 km/h 14.8 km/h 71 % 0 mm
06:25 0 °C -4.8 °C 1006.7 hPa NNE 8.9 km/h 11.1 km/h 70 % 0 mm
06:30 -0.1 °C -4.7 °C 1006.7 hPa NE 8.2 km/h 12.9 km/h 71 % 0 mm
06:35 -0.1 °C -4.9 °C 1006.7 hPa NNE 7.9 km/h 16.7 km/h 70 % 0 mm
06:40 -0.1 °C -4.9 °C 1006.7 hPa NNE 7.6 km/h 18.5 km/h 70 % 0 mm
06:45 -0.1 °C -5.1 °C 1006.7 hPa North 7.4 km/h 11.1 km/h 69 % 0 mm
06:50 -0.1 °C -4.9 °C 1006.7 hPa NNE 8.4 km/h 11.1 km/h 70 % 0 mm
06:55 -0.1 °C -4.9 °C 1006.7 hPa North 8.4 km/h 11.3 km/h 70 % 0 mm
07:00 -0.1 °C -4.9 °C 1006.7 hPa North 6 km/h 9.3 km/h 70 % 0 mm
07:06 -0.1 °C -4.9 °C 1006.7 hPa NNE 7.9 km/h 9.3 km/h 70 % 0 mm
07:11 -0.1 °C -4.9 °C 1006.7 hPa NNE 5 km/h 7.4 km/h 70 % 0 mm
07:16 -0.1 °C -5.1 °C 1006.7 hPa NNE 7.6 km/h 14.8 km/h 69 % 0 mm
07:21 -0.1 °C -5.1 °C 1006.7 hPa NNE 6.1 km/h 11.1 km/h 69 % 0 mm
07:26 0 °C -5 °C 1006.7 hPa North 7.1 km/h 9.7 km/h 69 % 0 mm
07:31 0 °C -4.8 °C 1006.7 hPa North 6.1 km/h 11.1 km/h 70 % 0 mm
07:36 0.1 °C -4.8 °C 1006.7 hPa NNE 10.3 km/h 14.8 km/h 70 % 0 mm
07:41 0.1 °C -4.9 °C 1006.7 hPa North 8.9 km/h 13 km/h 69 % 0 mm
07:46 0.1 °C -5.2 °C 1006.7 hPa North 8.9 km/h 14.8 km/h 68 % 0 mm
07:51 0.1 °C -5.3 °C 1006.7 hPa North 6.6 km/h 11.3 km/h 67 % 0 mm
07:56 0.1 °C -5.3 °C 1006.7 hPa North 10.8 km/h 14.5 km/h 67 % 0 mm
08:01 0.2 °C -5.2 °C 1006.7 hPa North 5.3 km/h 8 km/h 67 % 0 mm
08:07 0.2 °C -5.2 °C 1006.7 hPa North 2.9 km/h 7.4 km/h 67 % 0 mm
08:12 0.3 °C -5.1 °C 1006.7 hPa NNE 6.4 km/h 14.8 km/h 67 % 0 mm
08:17 0.5 °C -4.9 °C 1007 hPa North 5.8 km/h 13 km/h 67 % 0 mm
08:22 0.6 °C -4.8 °C 1007 hPa NE 6.6 km/h 9.3 km/h 67 % 0 mm
08:27 0.7 °C -4.8 °C 1007 hPa North 1.9 km/h 5.6 km/h 67 % 0 mm
08:32 0.8 °C -4.6 °C 1007 hPa NNE 7.7 km/h 9.3 km/h 67 % 0 mm
08:37 0.9 °C -4.3 °C 1007 hPa NNW 6.8 km/h 11.1 km/h 68 % 0 mm
08:42 1.1 °C -4.2 °C 1007 hPa North 6.6 km/h 11.1 km/h 68 % 0 mm
08:52 1.2 °C -4.1 °C 1007 hPa North 8.5 km/h 13 km/h 68 % 0 mm
08:57 1.2 °C -4.6 °C 1007 hPa North 8.2 km/h 13 km/h 65 % 0 mm
09:07 1.2 °C -5.3 °C 1007.3 hPa NNE 10.5 km/h 13 km/h 62 % 0 mm
09:12 1.2 °C -5.6 °C 1007.3 hPa NNE 8.7 km/h 11.1 km/h 61 % 0 mm
09:22 1.1 °C -6 °C 1007.3 hPa North 6.9 km/h 16.7 km/h 59 % 0 mm
09:28 1.1 °C -5.8 °C 1007.3 hPa NNE 6.4 km/h 13 km/h 60 % 0 mm
09:33 1.1 °C -5.8 °C 1007.7 hPa North 7.1 km/h 11.1 km/h 60 % 0 mm
09:38 1.1 °C -5.6 °C 1007.7 hPa NE 6.4 km/h 11.1 km/h 61 % 0 mm
09:43 1.1 °C -5.6 °C 1007.7 hPa North 3.9 km/h 5.6 km/h 61 % 0 mm
09:48 1.2 °C -5.7 °C 1007.3 hPa NNW 4.7 km/h 9.7 km/h 60 % 0 mm
09:53 1.2 °C -5.7 °C 1007.3 hPa North 7.2 km/h 9.3 km/h 60 % 0 mm
09:58 1.3 °C -5.4 °C 1007.7 hPa North 3.9 km/h 5.6 km/h 61 % 0 mm
10:03 1.3 °C -5.9 °C 1007.7 hPa NW 3.2 km/h 5.6 km/h 59 % 0 mm
10:08 1.3 °C -5.8 °C 1007.7 hPa NW 1.6 km/h 5.6 km/h 59 % 0 mm
10:13 1.3 °C -5.6 °C 1007.7 hPa NW 1 km/h 3.7 km/h 60 % 0 mm
10:14 1.4 °C -5.6 °C 1007.7 hPa NW 1.3 km/h 3.7 km/h 60 % 0 mm
10:24 1.6 °C -5.6 °C 1007.7 hPa NNW 0.6 km/h 3.7 km/h 59 % 0 mm
10:29 1.8 °C -5.4 °C 1007.7 hPa North 6.4 km/h 7.4 km/h 59 % 0 mm
10:34 2.1 °C -5.8 °C 1007.7 hPa Calm   1.9 km/h 56 % 0 mm
10:39 2.2 °C -5.9 °C 1007.7 hPa WNW 2.9 km/h 5.6 km/h 55 % 0 mm
10:44 2.2 °C -5.9 °C 1007.7 hPa NW 1.4 km/h 3.7 km/h 55 % 0 mm
10:49 2.2 °C -5.9 °C 1007.7 hPa NNW 0.2 km/h 3.2 km/h 55 % 0 mm
10:54 2.2 °C -5.9 °C 1007.7 hPa NW 3.5 km/h 5.6 km/h 55 % 0 mm
10:59 2.2 °C -6.2 °C 1007.7 hPa NW 4.5 km/h 8 km/h 54 % 0 mm
11:04 2.2 °C -5.7 °C 1007.7 hPa West 3.2 km/h 8 km/h 56 % 0 mm
11:09 2.1 °C -7 °C 1007.7 hPa NW 8 km/h 13 km/h 51 % 0 mm
11:15 2.1 °C -6.8 °C 1007.3 hPa NW 0.8 km/h 5.6 km/h 52 % 0 mm
11:19 2.1 °C -6.8 °C 1007.3 hPa WNW 4.7 km/h 14.5 km/h 52 % 0 mm
11:20 2.1 °C -6.8 °C 1007.3 hPa WNW 6.3 km/h 14.8 km/h 52 % 0 mm
11:21 2.1 °C -7 °C 1007.3 hPa WNW 5 km/h 14.8 km/h 51 % 0 mm
11:25 2.1 °C -7.2 °C 1007.3 hPa NW 3.9 km/h 7.4 km/h 50 % 0 mm
11:26 2.1 °C -7.2 °C 1007.3 hPa NNW 4.7 km/h 7.4 km/h 50 % 0 mm
11:31 2.1 °C -7.2 °C 1007.3 hPa NNW 5 km/h 9.3 km/h 50 % 0 mm
11:36 2.2 °C -7.4 °C 1007.3 hPa NW 2.9 km/h 11.1 km/h 49 % 0 mm
11:41 2.2 °C -7.4 °C 1007.3 hPa NW 6.8 km/h 9.3 km/h 49 % 0 mm
11:46 2.2 °C -7.4 °C 1007.3 hPa WNW 5 km/h 11.1 km/h 49 % 0 mm
11:57 2.3 °C -7.1 °C 1007.3 hPa NW 5.1 km/h 7.4 km/h 50 % 0 mm
12:02 2.3 °C -7.3 °C 1007 hPa WNW 4.3 km/h 8 km/h 49 % 0 mm
12:08 2.3 °C -7.3 °C 1007 hPa WNW 7.9 km/h 13 km/h 49 % 0 mm
12:13 2.3 °C -7.8 °C 1007 hPa WNW 3.9 km/h 9.3 km/h 47 % 0 mm
12:18 2.3 °C -7.8 °C 1007 hPa WNW 4.8 km/h 11.3 km/h 47 % 0 mm
12:23 2.4 °C -8.3 °C 1006.7 hPa West 5 km/h 18.5 km/h 45 % 0 mm
12:28 2.4 °C -7.4 °C 1007 hPa NNW 8.2 km/h 9.3 km/h 48 % 0 mm
12:40 2.5 °C -7.7 °C 1007 hPa WSW 7.6 km/h 18.5 km/h 47 % 0 mm
12:45 2.5 °C -7.9 °C 1006.7 hPa NNW 8.2 km/h 18.5 km/h 46 % 0 mm
12:50 2.4 °C -8 °C 1006.7 hPa West 13.2 km/h 22.2 km/h 46 % 0 mm
12:55 2.3 °C -8.1 °C 1006.7 hPa WNW 4.8 km/h 13 km/h 46 % 0 mm
13:03 2.3 °C -7.8 °C 1006.7 hPa WNW 6.8 km/h 16.7 km/h 47 % 0 mm
13:08 2.4 °C -7.7 °C 1006.3 hPa North 8.5 km/h 16.7 km/h 47 % 0 mm
13:13 2.5 °C -8.3 °C 1006.3 hPa NW 9.8 km/h 14.8 km/h 45 % 0 mm
13:18 2.6 °C -7.7 °C 1006.7 hPa NW 9.2 km/h 16.7 km/h 47 % 0 mm
13:23 2.7 °C -7.8 °C 1006.7 hPa WNW 8 km/h 18.5 km/h 46 % 0 mm
13:28 2.8 °C -7.1 °C 1006.7 hPa WNW 7.6 km/h 13 km/h 48 % 0 mm
13:33 2.9 °C -7.6 °C 1006.7 hPa NW 9.8 km/h 22.5 km/h 46 % 0 mm
13:38 2.8 °C -7.9 °C 1006.7 hPa West 7.7 km/h 14.8 km/h 45 % 0 mm
13:43 2.8 °C -7.4 °C 1006.7 hPa WNW 8.4 km/h 14.8 km/h 47 % 0 mm
13:48 2.7 °C -7.8 °C 1006.7 hPa NW 8.4 km/h 18.5 km/h 46 % 0 mm
13:53 2.8 °C -7.4 °C 1006.7 hPa NW 7.4 km/h 11.1 km/h 47 % 0 mm
13:58 3 °C -6.7 °C 1006.7 hPa WNW 8 km/h 14.8 km/h 49 % 0 mm
14:03 3.1 °C -7.4 °C 1006.3 hPa NW 10.5 km/h 16.7 km/h 46 % 0 mm
14:08 3 °C -7.5 °C 1006.3 hPa NNE 7.4 km/h 13 km/h 46 % 0 mm
14:13 3 °C -7.5 °C 1006.3 hPa WNW 8.2 km/h 16.7 km/h 46 % 0 mm
14:18 2.9 °C -7.3 °C 1006.3 hPa NW 9.5 km/h 18.5 km/h 47 % 0 mm
14:23 2.9 °C -7.6 °C 1006.3 hPa NW 8.4 km/h 13 km/h 46 % 0 mm
14:28 2.8 °C -7.4 °C 1006.7 hPa WNW 13.7 km/h 18.5 km/h 47 % 0 mm
14:33 2.8 °C -7.4 °C 1006.7 hPa WNW 6.9 km/h 17.7 km/h 47 % 0 mm
14:38 2.7 °C -8.1 °C 1006.7 hPa West 13.5 km/h 24.1 km/h 45 % 0 mm
14:43 2.6 °C -7.1 °C 1006.7 hPa NW 6.9 km/h 12.9 km/h 49 % 0 mm
14:48 2.5 °C -7.7 °C 1006.7 hPa WNW 11.7 km/h 22.2 km/h 47 % 0 mm
14:53 2.4 °C -7.7 °C 1006.7 hPa NW 9.3 km/h 18.5 km/h 47 % 0 mm
14:58 2.3 °C -7.8 °C 1006.7 hPa West 7.6 km/h 11.1 km/h 47 % 0 mm
15:03 2.3 °C -7.3 °C 1007 hPa WNW 11.3 km/h 19.3 km/h 49 % 0 mm
15:08 2.2 °C -7.9 °C 1007 hPa NW 4.8 km/h 12.9 km/h 47 % 0 mm
15:13 2.2 °C -7.7 °C 1007 hPa NW 4.8 km/h 16.1 km/h 48 % 0 mm
15:18 2.2 °C -7.7 °C 1007 hPa NW 9.2 km/h 16.7 km/h 48 % 0 mm
15:23 2.1 °C -7.8 °C 1007 hPa WNW 4.8 km/h 16.1 km/h 48 % 0 mm
15:28 2.1 °C -7.8 °C 1007.3 hPa NW 11.3 km/h 20.9 km/h 48 % 0 mm
15:33 2.1 °C -7.6 °C 1007.3 hPa NW 11.3 km/h 22.5 km/h 49 % 0 mm
15:38 2.1 °C -7.8 °C 1007.3 hPa NW 9.3 km/h 18.5 km/h 48 % 0 mm
15:43 2 °C -7.9 °C 1007.3 hPa NW 8 km/h 19.3 km/h 48 % 0 mm
15:48 2 °C -7.9 °C 1007.7 hPa NW 11.3 km/h 20.9 km/h 48 % 0 mm
15:53 1.9 °C -7.9 °C 1007.7 hPa NW 3.2 km/h 17.7 km/h 48 % 0 mm
15:58 1.8 °C -7.8 °C 1007.7 hPa WNW 10 km/h 16.7 km/h 49 % 0 mm
16:03 1.8 °C -8.1 °C 1007.7 hPa NNW 11.3 km/h 20.9 km/h 48 % 0 mm
16:08 1.8 °C -8.3 °C 1007.7 hPa NW 8 km/h 19.3 km/h 47 % 0 mm
16:13 1.7 °C -8.1 °C 1007.7 hPa NW 8 km/h 16.1 km/h 48 % 0 mm
16:18 1.7 °C -7.7 °C 1007.7 hPa NW 8 km/h 14.5 km/h 50 % 0 mm
16:23 1.6 °C -8.3 °C 1007.7 hPa NW 8 km/h 16.1 km/h 48 % 0 mm
16:28 1.6 °C -8 °C 1008 hPa NW 8 km/h 16.1 km/h 49 % 0 mm
16:33 1.5 °C -8.1 °C 1008 hPa WNW 5.1 km/h 16.7 km/h 49 % 0 mm
16:38 1.4 °C -8.4 °C 1008 hPa NW 8 km/h 19.3 km/h 48 % 0 mm
16:43 1.4 °C -8.2 °C 1008 hPa NW 4.8 km/h 19.3 km/h 49 % 0 mm
16:48 1.3 °C -7.7 °C 1008.4 hPa WNW 9.7 km/h 19.3 km/h 51 % 0 mm
16:53 1.3 °C -8.3 °C 1008.4 hPa WNW 4.8 km/h 16.1 km/h 49 % 0 mm
16:59 1.2 °C -8.3 °C 1008.4 hPa WNW 7.6 km/h 19.3 km/h 49 % 0 mm
17:04 1.2 °C -8.3 °C 1008.4 hPa WNW 6.1 km/h 13 km/h 49 % 0 mm
17:06 1.2 °C -8.7 °C 1008.4 hPa NW 5.8 km/h 18.5 km/h 48 % 0 mm
17:12 1.1 °C -8.4 °C 1008.4 hPa WNW 4.2 km/h 16.7 km/h 49 % 0 mm
17:17 1.1 °C -8.2 °C 1008.7 hPa WNW 8 km/h 14.8 km/h 50 % 0 mm
17:22 1.1 °C -8.2 °C 1008.7 hPa WNW 7.2 km/h 20.9 km/h 50 % 0 mm
17:27 1.1 °C -8.5 °C 1008.7 hPa WNW 4.7 km/h 18.5 km/h 49 % 0 mm
17:32 1 °C -8.6 °C 1009 hPa West 10.1 km/h 18.5 km/h 49 % 0 mm
17:37 0.9 °C -8.6 °C 1009 hPa WNW 9.2 km/h 22.2 km/h 49 % 0 mm
17:42 0.9 °C -8.1 °C 1009.4 hPa NW 2.7 km/h 14.8 km/h 51 % 0 mm
17:47 0.8 °C -8.4 °C 1009.4 hPa NNW 4.2 km/h 7.4 km/h 50 % 0 mm
17:52 0.8 °C -8.5 °C 1009.4 hPa WNW 6.1 km/h 11.3 km/h 50 % 0 mm
17:57 0.8 °C -8.7 °C 1009.4 hPa NW 10 km/h 19.3 km/h 49 % 0 mm
18:02 0.8 °C -8.7 °C 1009.7 hPa WNW 8.5 km/h 17.7 km/h 49 % 0 mm
18:07 0.7 °C -8.3 °C 1009.7 hPa West 8.5 km/h 14.5 km/h 51 % 0 mm
18:12 0.7 °C -8.3 °C 1009.7 hPa NW 6 km/h 9.3 km/h 51 % 0 mm
18:17 0.7 °C -8.3 °C 1009.7 hPa WNW 10.5 km/h 18.5 km/h 51 % 0 mm
18:22 0.7 °C -8.6 °C 1010 hPa North 7.6 km/h 11.1 km/h 50 % 0 mm
18:27 0.7 °C -8.6 °C 1010 hPa NW 6 km/h 11.1 km/h 50 % 0 mm
18:32 0.7 °C -8.6 °C 1010 hPa NW 10.8 km/h 24.1 km/h 50 % 0 mm
18:37 0.7 °C -8.8 °C 1010 hPa NNW 11.1 km/h 16.7 km/h 49 % 0 mm
18:42 0.7 °C -9.1 °C 1010.4 hPa NW 6.9 km/h 13 km/h 48 % 0 mm
18:47 0.7 °C -8.6 °C 1010.4 hPa West 10.8 km/h 14.5 km/h 50 % 0 mm
18:52 0.7 °C -8.8 °C 1010.7 hPa WNW 9.3 km/h 18.5 km/h 49 % 0 mm
18:57 0.7 °C -9.1 °C 1010.7 hPa WNW 3.5 km/h 20.4 km/h 48 % 0 mm
19:02 0.7 °C -9.1 °C 1010.7 hPa WNW 8 km/h 16.1 km/h 48 % 0 mm
19:07 0.6 °C -9.2 °C 1010.7 hPa WNW 6.4 km/h 18.5 km/h 48 % 0 mm
19:12 0.6 °C -9.4 °C 1010.7 hPa NNW 9 km/h 18.5 km/h 47 % 0 mm
19:17 0.6 °C -8.9 °C 1011.1 hPa NW 6 km/h 16.7 km/h 49 % 0 mm
19:23 0.6 °C -8.4 °C 1011.1 hPa NNW 6.8 km/h 20.9 km/h 51 % 0 mm
19:28 0.5 °C -9 °C 1011.1 hPa NNW 12.1 km/h 24.1 km/h 49 % 0 mm
19:33 0.5 °C -9 °C 1011.1 hPa NW 6.8 km/h 13 km/h 49 % 0 mm
19:38 0.5 °C -8.7 °C 1011.1 hPa NW 8.5 km/h 11.1 km/h 50 % 0 mm
19:43 0.5 °C -9 °C 1011.1 hPa WNW 8.9 km/h 18.5 km/h 49 % 0 mm
19:48 0.4 °C -8.8 °C 1011.1 hPa West 2.6 km/h 18.5 km/h 50 % 0 mm
19:53 0.4 °C -9.1 °C 1011.4 hPa NW 10.8 km/h 20.4 km/h 49 % 0 mm
19:58 0.4 °C -9.1 °C 1011.4 hPa NNW 3.4 km/h 5.6 km/h 49 % 0 mm
20:03 0.3 °C -8.9 °C 1011.4 hPa NW 4.5 km/h 14.5 km/h 50 % 0 mm
20:08 0.3 °C -9.2 °C 1011.4 hPa NNW 3.9 km/h 7.4 km/h 49 % 0 mm
20:13 0.3 °C -9.4 °C 1011.7 hPa WNW 13.2 km/h 22.2 km/h 48 % 0 mm
20:18 0.3 °C -9.7 °C 1011.7 hPa WNW 7.9 km/h 17.7 km/h 47 % 0 mm
20:23 0.3 °C -9.4 °C 1011.7 hPa NW 5.8 km/h 14.8 km/h 48 % 0 mm
20:28 0.2 °C -9.3 °C 1011.7 hPa WNW 3.1 km/h 13 km/h 49 % 0 mm
20:33 0.2 °C -9.3 °C 1011.7 hPa NW 11.4 km/h 14.8 km/h 49 % 0 mm
20:38 0.2 °C -9.1 °C 1011.7 hPa NW 10 km/h 14.8 km/h 50 % 0 mm
20:43 0.1 °C -8.8 °C 1012.1 hPa North 7.1 km/h 14.8 km/h 51 % 0 mm
20:48 0.1 °C -8.9 °C 1012.1 hPa NNW 9 km/h 14.8 km/h 51 % 0 mm
20:53 0 °C -9.4 °C 1012.1 hPa WSW 9 km/h 11.3 km/h 49 % 0 mm
20:58 -0.1 °C -9.3 °C 1012.1 hPa NW 10.3 km/h 24.1 km/h 50 % 0 mm
21:03 -0.1 °C -9.8 °C 1012.4 hPa WNW 7.9 km/h 24.1 km/h 48 % 0 mm
21:08 -0.1 °C -9.8 °C 1012.4 hPa NW 10.5 km/h 16.1 km/h 48 % 0 mm
21:13 -0.2 °C -9.9 °C 1012.4 hPa NW 7.2 km/h 16.7 km/h 48 % 0 mm
21:18 -0.2 °C -9.6 °C 1012.4 hPa WNW 9.7 km/h 14.8 km/h 49 % 0 mm
21:23 -0.2 °C -9.7 °C 1012.4 hPa WNW 12.9 km/h 20.9 km/h 49 % 0 mm
21:28 -0.3 °C -10.2 °C 1012.8 hPa WNW 9.7 km/h 22.5 km/h 47 % 0 mm
21:33 -0.3 °C -10.2 °C 1012.8 hPa WNW 11.3 km/h 19.3 km/h 47 % 0 mm
21:38 -0.3 °C -10.3 °C 1012.8 hPa NW 11.3 km/h 22.5 km/h 47 % 0 mm
21:43 -0.3 °C -9.8 °C 1012.8 hPa WNW 8 km/h 14.5 km/h 49 % 0 mm
21:48 -0.4 °C -9.8 °C 1013.1 hPa WNW 8 km/h 19.3 km/h 49 % 0 mm
21:53 -0.4 °C -9.9 °C 1013.1 hPa WNW 4.8 km/h 20.9 km/h 49 % 0 mm
21:58 -0.5 °C -9.9 °C 1013.1 hPa WNW 8.5 km/h 16.7 km/h 49 % 0 mm
22:03 -0.5 °C -10.2 °C 1013.1 hPa WNW 8 km/h 19.3 km/h 48 % 0 mm
22:08 -0.6 °C -10.2 °C 1013.1 hPa WNW 3.2 km/h 16.1 km/h 48 % 0 mm
22:13 -0.6 °C -10.3 °C 1013.1 hPa WNW 3.2 km/h 20.9 km/h 48 % 0 mm
22:18 -0.7 °C -10.3 °C 1013.4 hPa NW 9.7 km/h 16.1 km/h 48 % 0 mm
22:23 -0.7 °C -10.3 °C 1013.4 hPa NW 4.8 km/h 12.9 km/h 48 % 0 mm
22:28 -0.7 °C -10.3 °C 1013.4 hPa WNW 9.7 km/h 19.3 km/h 48 % 0 mm
22:33 -0.7 °C -10.6 °C 1013.4 hPa WNW 8 km/h 19.3 km/h 47 % 0 mm
22:38 -0.7 °C -10.7 °C 1013.4 hPa West 8 km/h 19.3 km/h 47 % 0 mm
22:43 -0.7 °C -10.9 °C 1013.4 hPa WNW 9.7 km/h 25.7 km/h 46 % 0 mm
22:48 -0.7 °C -10.9 °C 1013.4 hPa NW 9.7 km/h 20.9 km/h 46 % 0 mm
22:53 -0.7 °C -10.4 °C 1013.4 hPa NW 6.3 km/h 17.7 km/h 48 % 0 mm
22:59 -0.8 °C -10.4 °C 1013.4 hPa WNW 6.4 km/h 14.8 km/h 48 % 0 mm
23:04 -0.8 °C -11 °C 1013.4 hPa West 11.4 km/h 20.4 km/h 46 % 0 mm
23:09 -0.8 °C -11 °C 1013.8 hPa NW 6.8 km/h 14.8 km/h 46 % 0 mm
23:14 -0.8 °C -11 °C 1013.8 hPa NW 5 km/h 18.5 km/h 46 % 0 mm
23:19 -0.9 °C -11.3 °C 1013.8 hPa NW 13.2 km/h 20.4 km/h 45 % 0 mm
23:24 -0.9 °C -11.1 °C 1013.8 hPa WSW 5.6 km/h 11.3 km/h 46 % 0 mm
23:29 -0.9 °C -11.1 °C 1013.8 hPa NW 7.2 km/h 14.8 km/h 46 % 0 mm
23:34 -0.9 °C -11.4 °C 1013.4 hPa West 10.1 km/h 14.8 km/h 45 % 0 mm
23:39 -1 °C -10.9 °C 1013.8 hPa West 10 km/h 18.5 km/h 47 % 0 mm
23:44 -1.1 °C -11.2 °C 1013.4 hPa West 5 km/h 13 km/h 46 % 0 mm
23:49 -1.1 °C -11 °C 1013.4 hPa NW 6.4 km/h 9.3 km/h 47 % 0 mm
23:54 -1.2 °C -10.8 °C 1013.4 hPa NW 6.6 km/h 9.7 km/h 48 % 0 mm
23:59 -1.2 °C -10.8 °C 1013.4 hPa WSW 4.3 km/h 9.3 km/h 48 % 0 mm
Crab Meadow Weather
Compliments of Weather Underground - 3 mb

Script developed by  Jim McMurry - jmcmurry@mwt.net Adapted for the template by  Wim van der Kuil - Leuven-Template.eu

Extremes: A record low of - 128.6 degrees F was recorded at Vostok, Antarctica.